Météo par heure à Bruxelles

Ce jour, 25 Janvier, Lundi

Heure Température Précipitation Vent Pression Humidité
00:00 +3°C° 0 mm 1 m/s 743 mmHg 96%
01:00 +3°C° 0.1 mm 1 m/s 744 mmHg 96%
02:00 +3°C° 0.1 mm 1 m/s 744 mmHg 96%
03:00 +2°C° 0.1 mm 1 m/s 745 mmHg 96%
04:00 +2°C° 0 mm 1 m/s 745 mmHg 96%
05:00 +1°C° 0 mm 2 m/s 746 mmHg 96%
06:00 +1°C° 0 mm 2 m/s 746 mmHg 96%
07:00 -2°C° 0.3 mm 4 m/s 751 mmHg 89%
08:00 -2°C° 0.3 mm 5 m/s 751 mmHg 92%
09:00 -1°C° 0.3 mm 5 m/s 751 mmHg 94%
10:00 -1°C° 0.2 mm 5 m/s 751 mmHg 94%
11:00 0°C° 0.2 mm 4 m/s 751 mmHg 94%
12:00 0°C° 0.2 mm 4 m/s 751 mmHg 94%
13:00 +1°C° 0.1 mm 4 m/s 752 mmHg 91%
14:00 +1°C° 0.1 mm 4 m/s 752 mmHg 88%
15:00 +1°C° 0.1 mm 4 m/s 752 mmHg 85%
16:00 +1°C° 0 mm 4 m/s 753 mmHg 84%
17:00 0°C° 0 mm 4 m/s 753 mmHg 83%
18:00 0°C° 0 mm 4 m/s 754 mmHg 82%
19:00 0°C° 0.2 mm 4 m/s 755 mmHg 86%
20:00 0°C° 0.2 mm 4 m/s 755 mmHg 90%
21:00 0°C° 0.2 mm 4 m/s 755 mmHg 94%
22:00 0°C° 0.1 mm 4 m/s 756 mmHg 93%
23:00 0°C° 0.1 mm 5 m/s 756 mmHg 91%

Demain, 26 Janvier, Mardi

Heure Température Précipitation Vent Pression Humidité
00:00 0°C° 0.1 mm 5 m/s 756 mmHg 90%
01:00 -1°C° 0 mm 5 m/s 756 mmHg 90%
02:00 -1°C° 0 mm 5 m/s 756 mmHg 90%
03:00 -1°C° 0 mm 5 m/s 757 mmHg 90%
04:00 -1°C° 0 mm 4 m/s 757 mmHg 91%
05:00 -1°C° 0 mm 4 m/s 757 mmHg 91%
06:00 -1°C° 0 mm 4 m/s 758 mmHg 92%
07:00 -1°C° 0 mm 4 m/s 758 mmHg 91%
08:00 -1°C° 0 mm 4 m/s 758 mmHg 90%
09:00 -1°C° 0 mm 4 m/s 758 mmHg 88%
10:00 0°C° 0 mm 4 m/s 758 mmHg 84%
11:00 +1°C° 0 mm 4 m/s 758 mmHg 81%
12:00 +2°C° 0 mm 5 m/s 758 mmHg 77%
13:00 +2°C° 0 mm 5 m/s 757 mmHg 80%
14:00 +2°C° 0 mm 5 m/s 757 mmHg 82%
15:00 +2°C° 0 mm 5 m/s 757 mmHg 85%
16:00 +2°C° 0.8 mm 6 m/s 756 mmHg 88%
17:00 +2°C° 0.8 mm 7 m/s 755 mmHg 90%
18:00 +2°C° 0.8 mm 7 m/s 754 mmHg 92%
19:00 +1°C° 0.6 mm 8 m/s 753 mmHg 92%
20:00 +2°C° 0.6 mm 8 m/s 752 mmHg 91%
21:00 +3°C° 0.6 mm 9 m/s 752 mmHg 90%
22:00 +4°C° 0.1 mm 8 m/s 752 mmHg 91%
23:00 +5°C° 0.1 mm 7 m/s 752 mmHg 91%

Après-demain, 27 Janvier, Mercredi

Heure Température Précipitation Vent Pression Humidité
00:00 +5°C° 0.1 mm 7 m/s 752 mmHg 92%
01:00 +5°C° 0 mm 7 m/s 752 mmHg 90%
02:00 +5°C° 0 mm 7 m/s 753 mmHg 89%
03:00 +4°C° 0 mm 7 m/s 753 mmHg 87%
04:00 +4°C° 0 mm 7 m/s 754 mmHg 88%
05:00 +4°C° 0 mm 6 m/s 755 mmHg 89%
06:00 +3°C° 0 mm 6 m/s 755 mmHg 90%
07:00 +3°C° 0 mm 5 m/s 756 mmHg 89%
08:00 +5°C° 0 mm 5 m/s 757 mmHg 89%
09:00 +5°C° 0 mm 5 m/s 757 mmHg 89%
10:00 +5°C° 0 mm 5 m/s 758 mmHg 86%
11:00 +6°C° 0 mm 5 m/s 758 mmHg 84%
12:00 +7°C° 0 mm 5 m/s 758 mmHg 82%
13:00 +7°C° 0 mm 4 m/s 758 mmHg 82%
14:00 +7°C° 0 mm 4 m/s 758 mmHg 82%
15:00 +8°C° 0 mm 3 m/s 758 mmHg 82%
16:00 +7°C° 0 mm 4 m/s 758 mmHg 85%
17:00 +6°C° 0 mm 4 m/s 758 mmHg 89%
18:00 +6°C° 0 mm 5 m/s 758 mmHg 92%
19:00 +6°C° 0 mm 5 m/s 758 mmHg 91%
20:00 +5°C° 0 mm 6 m/s 757 mmHg 91%
21:00 +5°C° 0 mm 6 m/s 757 mmHg 90%
22:00 +5°C° 0.3 mm 7 m/s 756 mmHg 90%
23:00 +5°C° 0.3 mm 8 m/s 755 mmHg 90%

28 Janvier, Jeudi

Heure Température Précipitation Vent Pression Humidité
00:00 +5°C° 0.3 mm 9 m/s 754 mmHg 91%
01:00 +6°C° 2 mm 8 m/s 753 mmHg 91%
02:00 +7°C° 2 mm 8 m/s 752 mmHg 91%
03:00 +7°C° 2 mm 8 m/s 751 mmHg 91%
04:00 +8°C° 0.2 mm 9 m/s 751 mmHg 88%
05:00 +8°C° 0.2 mm 9 m/s 750 mmHg 85%
06:00 +8°C° 0.2 mm 9 m/s 750 mmHg 82%
07:00 +8°C° 0 mm 9 m/s 750 mmHg 81%
08:00 +8°C° 0 mm 9 m/s 750 mmHg 81%
09:00 +8°C° 0 mm 9 m/s 750 mmHg 81%
10:00 +7°C° 0.5 mm 9 m/s 750 mmHg 83%
11:00 +7°C° 0.5 mm 8 m/s 750 mmHg 85%
12:00 +7°C° 0.5 mm 8 m/s 750 mmHg 87%
13:00 +7°C° 0.2 mm 8 m/s 750 mmHg 82%
14:00 +7°C° 0.2 mm 8 m/s 750 mmHg 77%
15:00 +9°C° 0.2 mm 8 m/s 750 mmHg 72%
16:00 +7°C° 0 mm 8 m/s 751 mmHg 74%
17:00 +6°C° 0 mm 7 m/s 752 mmHg 76%
18:00 +7°C° 0 mm 6 m/s 753 mmHg 79%

29 Janvier, Vendredi

Heure Température Précipitation Vent Pression Humidité

30 Janvier, Samedi

Heure Température Précipitation Vent Pression Humidité
Voir plus

Nous avons besoin de votre consentement

Meteoprog et ses fournisseurs de services peuvent stocker et accéder à des données personnelles telles que des cookies, des identifiants d'appareils ou d'autres technologies similaires sur votre appareil et traiter ces données pour personnaliser le contenu et les publicités, ainsi que pour fournir des fonctionnalités de médias sociaux et analyser le trafic.

  • Stocker et/ou accéder à des informations sur votre appareil

    Des cookies, des identifiants d'appareils ou d'autres informations peuvent être stockés ou accessibles sur votre appareil aux fins indiquées ci-dessus.

  • Annonces et contenus personnalisés, mesure des annonces et des contenus, connaissance de l'audience et développement de produits

    Les annonces et le contenu peuvent être personnalisés en fonction d'un profil. D'autres données peuvent être ajoutées pour mieux personnaliser les annonces et le contenu. Les performances des publicités et du contenu peuvent être mesurées. Il est possible d'obtenir des informations sur le public qui a vu les publicités et le contenu. Ces données peuvent être utilisées pour développer ou améliorer l'expérience de l'utilisateur, les systèmes et les logiciels.

En cliquant sur "J'accepte", vous autorisez l'utilisation de cookies, des identifiants d'appareils, des balises web ou d'autres technologies similaires. Vos paramètres peuvent être modifiés dans le navigateur de votre appareil.

Dans certains cas, des intérêts légitimes peuvent être invoqués plutôt qu'un consentement. Vous pouvez en savoir plus à ce sujet dans notre Politique de confidentialité et de cookies.